Temperature
23 21 22 22 21 23 23 23 22 20 19 17 16 16 16 15 15 14 14 14 14 14 15 15 16 16 16 16 16 16 16 16 16 16 15 15 15 16 16 16 16 17 17 17
21 22 23 23 23 22 22 23 22 19 19 17 16 15 16 15 14 14 13 13 14 15 15 16 16 16 16 16 16 16 16 16 16 16 16 16 16 16 16 16 17 17 17 17
23 23 24 24 24 24 24 24 23 20 18 17 16 16 15 15 14 14 14 14 14 15 15 15 16 16 16 16 16 16 16 16 16 16 16 16 16 16 16 17 17 17 17 17
23 23 23 24 24 25 23 24 24 22 19 17 18 16 16 15 14 14 14 14 14 14 15 15 16 16 16 16 16 16 16 16 16 16 16 16 16 16 16 16 16 17 17 17
22 23 23 24 25 24 24 22 21 21 19 17 17 16 16 15 14 14 14 14 14 14 15 15 16 16 16 16 16 16 16 16 16 15 15 15 15 15 15 15 16 16 16 16
22 23 23 23 24 24 23 21 20 17 17 18 17 17 16 15 15 14 14 14 14 15 15 15 15 15 16 16 16 16 16 15 15 15 15 15 15 15 15 15 15 15 15 15
21 22 23 23 23 22 21 20 19 19 17 18 17 17 17 16 15 15 15 15 15 15 15 15 15 15 15 15 15 15 15 15 15 14 14 14 14 14 14 14 14 14 14 14
21 21 22 23 23 22 21 20 19 20 19 17 17 17 16 15 15 15 15 15 15 15 15 15 15 15 15 15 14 14 14 14 14 14 14 13 13 13 13 13 13 13 13 13
21 21 22 23 22 22 21 18 18 16 17 17 17 17 16 15 14 14 15 15 15 15 15 15 15 15 14 14 14 14 13 13 13 13 13 13 13 13 13 12 12 12 12 12
21 21 21 21 21 21 20 18 16 16 17 17 17 17 15 14 14 13 14 14 15 15 15 14 14 14 13 13 13 13 13 13 13 13 13 12 12 12 12 12 12 12 11 11
20 19 20 20 19 19 19 18 15 14 15 16 17 15 14 13 13 13 14 14 14 14 14 13 13 13 13 12 12 12 12 12 12 12 12 12 12 12 12 11 11 11 11 11
18 16 18 19 19 19 18 17 16 16 16 15 14 14 13 13 13 14 14 14 14 14 13 13 12 12 12 12 12 12 12 12 12 12 12 11 11 11 11 11 11 11 11 11
18 16 17 18 18 18 17 17 15 13 13 14 14 14 13 13 13 14 14 14 14 13 13 12 12 11 11 11 11 11 11 11 11 11 11 11 11 11 11 11 11 11 11 10
17 15 17 18 18 18 17 17 16 14 14 14 15 14 13 12 11 13 14 13 13 12 12 11 11 10 10 10 10 9 9 9 9 9 9 10 10 10 10 10 10 10 10 10
16 16 17 17 18 17 17 17 17 16 16 14 14 14 13 12 11 12 13 13 12 11 11 10 10 9 9 8 8 8 8 7 7 7 8 8 8 9 9 9 10 10 10 10
15 16 17 17 17 17 16 17 17 16 16 15 14 13 13 13 13 12 12 12 11 11 10 9 9 8 8 7 6 6 6 6 6 6 6 6 7 7 7 8 8 9 9 9
14 15 16 16 17 17 16 16 16 15 14 14 12 12 11 10 10 11 12 11 10 10 9 8 8 7 6 6 5 5 5 5 5 5 5 5 5 5 6 6 7 7 8 8
15 13 13 15 16 17 16 16 16 15 14 13 12 11 11 11 11 12 11 10 9 9 8 7 7 6 6 6 5 5 5 5 4 4 4 4 4 4 4 5 5 6 6 7
14 14 13 14 16 16 16 16 16 14 12 12 12 11 11 12 10 10 11 9 9 8 7 7 6 6 6 5 5 5 4 4 4 4 4 4 4 4 4 4 4 5 5 6
13 13 13 14 17 16 16 16 16 14 13 13 12 11 11 9 7 8 10 9 8 8 7 7 6 6 6 5 5 4 4 4 4 4 4 4 4 4 4 4 4 4 4 5
16 14 14 14 15 15 15 15 15 14 14 14 13 12 11 9 8 10 9 8 8 7 7 6 6 6 6 5 5 4 4 4 4 4 4 4 4 4 4 4 4 4 4 4
15 15 14 12 15 15 15 14 13 14 14 14 13 12 11 10 10 9 8 8 7 7 7 6 6 6 6 5 5 4 4 5 4 4 4 4 4 4 4 3 3 3 4 4
14 14 13 13 14 15 16 15 16 15 14 13 12 12 11 10 9 8 8 7 7 7 7 6 6 6 6 5 5 5 5 5 5 5 4 4 4 4 4 3 3 3 3 4
14 12 12 13 13 14 15 15 15 14 14 13 12 11 10 9 8 8 7 7 7 7 6 6 6 6 6 6 5 5 5 5 5 5 4 4 4 4 4 4 4 4 4 4
15 13 12 13 13 14 15 15 15 14 13 13 12 11 10 9 8 7 7 7 6 6 6 6 6 6 6 6 5 5 5 5 5 5 5 4 4 4 4 4 4 4 4 4
13 13 13 14 16 14 16 17 15 14 13 12 11 10 9 8 8 7 7 6 6 6 6 6 6 6 6 6 6 6 5 5 5 5 5 4 4 4 4 4 4 4 4 4
Wind_Speed
4 4 2 5 7 6 4 2 0 4 5 9 14 12 11 10 11 12 11 11 11 10 8 8 9 9 8 8 9 9 9 8 6 3 3 3 2 2 2 5 8 9 8 7
6 2 6 5 5 5 5 2 3 6 7 7 10 11 8 10 10 9 9 9 8 8 9 9 9 9 8 8 7 7 7 7 7 4 3 2 2 2 2 3 5 4 5 5
3 5 3 2 2 0 2 4 4 7 6 5 7 6 4 5 7 8 8 7 6 7 7 7 7 6 6 6 6 5 6 6 6 6 3 2 2 2 3 5 5 6 5 3
4 4 3 3 2 1 4 3 3 8 8 4 4 3 1 0 3 4 4 4 5 5 4 5 5 5 5 5 5 4 4 4 5 5 4 5 3 3 3 4 4 6 7 6
6 3 3 3 3 1 2 4 5 4 6 5 4 5 2 2 1 1 1 1 2 4 4 5 6 6 6 6 5 5 4 3 3 3 3 3 2 1 2 3 5 6 6 7
5 3 3 3 3 1 2 6 6 6 5 4 3 3 2 3 4 3 2 2 3 5 5 6 7 7 8 7 6 6 5 4 4 2 1 1 1 1 3 4 4 4 4 4
8 7 4 2 4 5 6 6 5 6 5 2 3 2 1 1 3 3 3 3 4 5 6 7 8 8 9 9 8 7 7 7 6 5 4 3 3 3 2 3 3 3 3 3
5 7 7 5 2 2 3 6 6 3 3 3 4 1 2 1 2 2 1 2 4 6 7 8 9 8 8 9 9 8 8 9 8 7 7 6 6 4 4 5 4 4 3 4
0 5 6 5 4 3 3 4 4 6 2 2 3 2 3 4 3 2 1 2 4 7 8 9 9 9 9 10 10 9 9 9 9 9 8 8 8 7 7 7 6 5 5 5
3 3 7 7 8 9 6 6 6 5 3 1 4 3 4 6 4 2 2 4 6 8 9 9 8 8 8 9 10 10 9 9 10 10 10 9 9 9 9 7 8 8 7 7
3 2 6 6 8 8 7 6 6 5 4 4 2 2 3 2 1 2 3 5 8 9 9 9 8 8 9 10 10 10 11 11 11 11 11 11 11 11 9 9 10 10 8 8
4 5 3 3 4 3 5 5 3 4 2 2 1 4 2 1 2 2 5 8 9 9 9 8 9 9 10 11 12 12 12 12 13 13 12 13 12 11 11 12 12 11 11 10
5 6 4 6 7 8 7 6 5 6 5 2 0 5 2 2 4 5 8 10 10 10 10 9 10 11 12 12 13 13 13 14 14 14 14 14 14 13 13 13 13 12 12 12
5 6 4 3 3 1 4 6 5 5 3 2 5 7 3 5 7 9 10 10 10 10 10 10 11 11 12 12 12 12 13 13 14 14 14 15 16 15 15 14 13 13 12 12
6 5 4 3 3 5 4 4 4 3 3 5 7 7 6 5 8 9 10 10 11 11 11 12 11 11 11 11 11 11 12 12 13 14 15 15 16 16 15 14 13 13 12 14
5 5 3 3 4 7 4 3 2 0 2 4 5 7 6 6 7 8 11 11 11 11 12 12 12 12 12 11 11 12 12 13 13 14 15 15 15 16 15 15 14 13 12 12
3 6 4 3 3 2 2 3 2 4 5 5 7 7 8 9 9 9 11 10 11 12 13 13 12 12 13 13 13 13 13 13 13 14 15 15 15 15 15 16 15 13 12 11
6 5 4 3 2 3 6 3 3 5 7 7 7 8 9 11 10 10 10 9 10 11 11 12 12 13 13 13 14 13 14 14 15 15 15 15 15 16 15 15 15 14 11 10
4 7 5 3 1 5 3 4 3 4 7 7 7 9 8 8 8 7 7 6 8 10 11 12 14 15 13 14 14 14 15 15 16 16 16 16 16 16 16 16 14 12 11 10
7 6 6 4 2 5 7 3 1 2 6 6 6 8 8 7 7 6 7 9 10 11 11 13 14 14 13 14 14 15 16 16 16 16 17 16 16 16 16 15 14 11 10 11
3 5 4 3 4 7 6 2 3 1 6 4 5 7 7 5 7 9 10 10 10 12 14 14 14 14 14 14 14 15 16 16 16 17 17 16 15 15 15 13 11 10 9 9
6 4 4 4 2 7 5 6 6 8 4 3 5 6 7 8 9 9 9 10 12 13 13 13 13 15 15 14 14 16 16 16 16 16 16 16 15 14 12 10 9 8 7 7
6 8 6 8 7 5 6 8 6 6 5 5 5 7 6 7 8 8 8 10 12 13 13 13 14 16 15 14 13 16 16 16 16 16 16 15 14 12 11 9 9 7 5 5
3 4 4 4 7 6 7 5 4 6 6 5 6 6 5 7 8 10 10 10 11 11 14 13 14 16 16 16 15 15 15 15 15 15 14 13 12 11 9 7 6 5 4 4
7 7 4 5 6 4 8 8 7 6 6 6 5 5 6 7 9 9 9 11 11 12 12 12 14 15 17 16 16 15 14 14 14 14 13 12 11 10 9 8 6 6 5 5
6 9 8 9 8 8 8 8 8 7 7 7 6 5 6 6 8 8 9 10 11 13 13 14 14 15 16 16 16 15 13 13 13 12 11 9 9 9 7 7 7 5 5 5
Wind_Direction
31 64 296 256 217 224 248 262 157 125 138 71 79 72 45 34 43 49 50 52 49 42 27 27 25 24 23 18 13 6 2 354 352 342 332 335 313 302 257 250 252 248 238 216
30 316 251 259 240 220 221 204 110 99 117 101 94 72 47 36 37 40 44 45 40 29 21 18 16 15 9 5 1 1 0 356 354 342 316 299 298 299 294 299 298 287 260 229
221 251 282 304 320 222 228 183 176 149 111 110 117 67 29 24 34 36 34 30 26 30 15 0 0 357 352 354 353 357 354 356 356 351 350 350 349 345 351 352 350 341 319 265
278 283 323 334 332 35 305 296 190 153 143 165 178 128 222 335 18 20 15 11 5 352 343 330 324 324 324 317 321 332 339 348 354 4 34 48 45 17 343 329 339 348 358 354
290 308 324 317 288 260 248 44 73 105 123 94 43 112 202 196 214 271 283 306 307 296 293 290 290 289 290 290 295 299 304 320 336 0 41 70 64 2 302 327 349 358 1 5
266 277 242 262 308 341 111 71 55 57 73 68 337 112 199 211 191 193 203 226 256 270 278 279 277 278 281 279 274 270 274 280 284 296 333 76 66 348 348 348 350 348 344 349
339 337 330 307 350 7 58 72 25 5 14 302 322 80 252 192 161 181 206 242 262 268 274 278 280 280 279 279 275 270 267 270 269 269 264 251 245 247 259 276 296 309 316 316
3 327 336 355 4 313 49 113 142 210 237 292 353 28 329 85 123 126 196 259 274 277 279 281 282 285 289 291 289 282 272 269 268 266 265 260 253 247 246 246 246 256 256 266
316 293 325 357 3 60 71 72 130 125 118 42 327 331 33 60 55 63 36 326 307 301 298 296 299 303 304 303 299 291 279 275 274 269 266 265 257 248 248 249 247 249 252 259
148 298 323 325 22 28 79 118 79 85 107 360 329 8 350 342 350 24 13 330 315 309 305 306 310 309 306 303 302 301 288 276 272 270 267 268 259 252 249 247 246 247 249 252
99 87 343 22 27 349 19 44 77 88 116 133 291 294 347 323 19 39 339 316 306 303 303 301 298 297 297 299 298 296 291 285 281 277 271 267 264 257 250 247 248 247 246 245
99 102 32 338 327 7 72 55 86 100 54 101 180 262 315 102 77 358 310 301 300 303 302 295 296 301 303 303 302 297 291 285 280 277 275 271 267 262 253 249 247 243 241 241
110 87 53 359 349 12 37 28 68 93 94 98 260 266 192 357 327 307 299 299 304 312 311 305 307 305 304 303 302 301 298 293 291 290 287 283 279 271 261 253 247 241 238 239
98 80 125 173 242 78 51 25 45 83 95 254 237 257 257 319 313 307 303 300 304 306 305 301 301 299 299 299 301 302 303 302 301 299 295 290 286 281 274 266 254 244 237 235
82 84 72 60 72 100 92 68 65 98 175 215 259 263 256 271 287 289 290 295 303 302 301 299 298 297 297 300 302 304 304 305 305 303 299 294 291 288 284 276 266 256 245 238
68 112 105 64 72 90 79 35 37 127 251 252 272 273 250 282 296 289 289 293 296 297 302 304 304 305 306 307 307 305 303 303 302 300 298 296 295 293 290 285 276 264 251 242
86 123 121 189 213 344 279 238 244 247 234 221 240 255 289 299 295 284 288 296 297 302 305 304 305 304 305 305 305 304 300 300 299 297 297 296 295 293 292 292 287 275 261 246
123 105 114 122 95 258 250 231 221 238 240 217 232 259 277 273 278 278 279 283 291 295 298 301 303 304 303 301 301 300 301 301 301 299 298 297 295 294 292 289 286 278 266 251
121 127 110 106 197 287 257 223 199 236 269 217 235 265 277 294 315 292 274 282 287 293 299 302 303 303 301 302 303 305 306 306 305 303 301 299 296 292 290 287 282 278 268 256
59 82 105 119 178 249 245 209 162 159 287 222 231 271 289 320 326 289 295 311 305 304 302 303 303 302 303 305 308 311 311 310 308 307 304 301 298 293 289 285 279 276 266 256
45 48 95 153 224 262 240 168 96 191 267 226 234 265 277 257 244 273 302 302 297 297 300 303 305 309 311 311 313 313 312 311 310 308 306 303 299 295 291 285 280 274 264 250
169 156 180 158 209 265 200 145 185 222 240 248 255 263 267 266 274 287 296 297 302 305 306 308 309 313 314 313 314 314 312 312 311 310 308 306 303 300 301 293 288 281 265 249
190 189 189 189 213 241 201 202 213 183 213 243 248 266 275 280 285 292 291 295 301 304 307 310 312 315 316 316 315 313 313 314 314 314 313 312 311 308 304 298 292 284 264 241
234 145 152 236 259 240 230 230 220 197 214 242 258 275 272 275 281 288 290 296 303 305 311 313 316 318 318 319 318 313 312 315 317 317 318 318 319 317 312 306 296 282 262 248
220 170 187 243 267 257 251 231 219 216 232 261 275 265 263 268 277 280 290 300 306 310 311 312 316 317 317 320 319 317 316 319 320 320 321 323 323 322 320 313 302 287 264 248
194 179 179 219 216 194 233 224 198 207 234 249 257 266 267 260 270 285 295 299 305 309 312 316 317 318 319 320 319 319 320 323 323 325 326 326 326 325 325 325 326 313 290 283
Height
1492 1497 1501 1499 1497 1496 1497 1500 1504 1506 1508 1512 1517 1520 1519 1517 1513 1511 1509 1508 1507 1507 1507 1507 1506 1505 1505 1503 1501 1499 1498 1496 1493 1490 1487 1485 1483 1483 1485 1488 1490 1492 1494 1495
1497 1499 1492 1489 1489 1493 1496 1499 1503 1508 1510 1514 1520 1522 1521 1519 1517 1516 1514 1512 1512 1511 1510 1510 1509 1508 1507 1505 1503 1501 1499 1497 1495 1492 1490 1488 1487 1487 1488 1488 1489 1490 1491 1492
1497 1494 1488 1489 1489 1491 1492 1494 1497 1505 1512 1515 1519 1526 1525 1523 1522 1520 1518 1517 1515 1514 1514 1513 1512 1511 1510 1507 1505 1503 1501 1498 1496 1494 1491 1489 1488 1487 1487 1486 1486 1486 1487 1489
1494 1489 1488 1488 1488 1488 1495 1487 1488 1496 1510 1520 1518 1534 1529 1527 1526 1524 1522 1520 1519 1518 1517 1516 1515 1513 1512 1510 1507 1504 1502 1499 1496 1494 1491 1489 1487 1486 1485 1484 1483 1483 1483 1484
1495 1490 1489 1490 1486 1485 1487 1487 1490 1496 1506 1519 1520 1529 1532 1527 1528 1526 1525 1523 1522 1520 1519 1517 1516 1515 1512 1510 1508 1505 1502 1499 1496 1493 1490 1488 1486 1484 1482 1481 1480 1479 1479 1479
1492 1488 1487 1486 1483 1483 1484 1490 1497 1505 1513 1526 1525 1526 1531 1527 1526 1525 1524 1524 1522 1521 1520 1518 1517 1514 1512 1509 1506 1504 1501 1498 1494 1492 1489 1486 1484 1482 1480 1478 1476 1475 1475 1474
1498 1490 1486 1485 1486 1486 1489 1503 1521 1523 1532 1532 1524 1527 1528 1522 1522 1523 1523 1523 1522 1521 1519 1517 1515 1513 1510 1507 1504 1501 1498 1495 1492 1489 1486 1484 1481 1479 1477 1474 1473 1471 1470 1469
1511 1509 1492 1488 1489 1492 1494 1502 1524 1532 1535 1534 1527 1528 1527 1522 1522 1522 1522 1522 1521 1520 1518 1516 1513 1510 1507 1504 1500 1497 1493 1491 1488 1486 1483 1481 1478 1475 1473 1471 1469 1467 1465 1464
1511 1509 1493 1489 1488 1489 1496 1507 1509 1525 1529 1536 1532 1526 1523 1523 1523 1523 1522 1522 1520 1519 1517 1514 1510 1507 1503 1499 1496 1492 1488 1486 1483 1481 1479 1476 1474 1471 1469 1466 1464 1463 1461 1459
1503 1510 1501 1494 1490 1493 1497 1505 1516 1526 1536 1540 1533 1532 1535 1528 1526 1524 1522 1521 1520 1518 1514 1511 1507 1504 1500 1496 1492 1488 1485 1481 1478 1475 1473 1470 1468 1465 1463 1460 1459 1457 1456 1454
1502 1512 1510 1503 1508 1510 1506 1510 1521 1531 1532 1540 1542 1541 1532 1529 1526 1525 1523 1521 1518 1515 1511 1508 1504 1501 1497 1493 1489 1485 1481 1477 1473 1469 1466 1463 1460 1457 1455 1453 1451 1450 1449 1448
1506 1515 1521 1513 1508 1506 1508 1515 1520 1529 1535 1538 1544 1545 1530 1528 1526 1524 1522 1519 1516 1512 1508 1505 1501 1498 1493 1489 1485 1480 1476 1471 1467 1463 1459 1455 1451 1449 1446 1444 1443 1442 1441 1440
1506 1518 1530 1527 1523 1515 1516 1518 1522 1529 1538 1541 1545 1541 1529 1526 1524 1522 1519 1516 1512 1509 1505 1502 1498 1494 1489 1484 1479 1474 1469 1464 1460 1455 1450 1446 1443 1440 1437 1434 1433 1433 1432 1432
1504 1520 1529 1532 1528 1522 1524 1523 1523 1529 1540 1540 1536 1532 1526 1524 1522 1519 1515 1512 1509 1506 1502 1498 1494 1489 1484 1479 1473 1468 1462 1457 1452 1446 1441 1437 1433 1430 1426 1424 1423 1422 1422 1422
1507 1523 1523 1523 1520 1521 1524 1525 1525 1527 1529 1535 1531 1528 1524 1522 1520 1516 1512 1509 1505 1502 1498 1493 1488 1483 1478 1472 1466 1460 1454 1449 1444 1438 1432 1427 1423 1419 1416 1413 1411 1410 1411 1411
1512 1522 1523 1526 1524 1524 1528 1526 1525 1526 1526 1527 1527 1526 1519 1518 1516 1513 1509 1505 1501 1498 1493 1488 1483 1477 1471 1465 1459 1453 1447 1441 1436 1430 1424 1419 1414 1409 1405 1402 1400 1399 1399 1400
1517 1522 1529 1534 1527 1528 1533 1528 1526 1526 1524 1526 1528 1524 1517 1515 1513 1509 1504 1501 1498 1494 1488 1483 1477 1470 1464 1458 1452 1445 1439 1434 1428 1422 1416 1411 1405 1400 1396 1392 1390 1389 1389 1390
1515 1525 1533 1535 1533 1536 1531 1520 1520 1522 1521 1521 1520 1518 1515 1512 1509 1505 1502 1499 1494 1489 1483 1477 1470 1464 1458 1452 1445 1439 1433 1427 1421 1414 1409 1403 1398 1392 1387 1383 1380 1378 1379 1380
1510 1519 1531 1538 1536 1532 1525 1519 1519 1522 1522 1517 1517 1515 1512 1508 1504 1500 1499 1495 1490 1485 1479 1472 1465 1459 1452 1446 1439 1433 1426 1420 1414 1408 1402 1396 1390 1384 1379 1375 1371 1369 1369 1369
1513 1517 1528 1536 1533 1535 1524 1516 1516 1520 1521 1514 1513 1511 1509 1507 1506 1499 1494 1490 1485 1480 1474 1467 1459 1453 1446 1440 1433 1427 1420 1414 1407 1401 1395 1389 1383 1377 1371 1366 1363 1360 1359 1360
1519 1525 1530 1533 1534 1527 1515 1513 1516 1524 1520 1511 1509 1508 1506 1504 1502 1496 1491 1486 1481 1475 1468 1461 1454 1447 1441 1434 1428 1421 1415 1408 1402 1395 1388 1382 1376 1370 1364 1359 1355 1353 1352 1352
1520 1526 1530 1535 1533 1528 1510 1511 1515 1513 1507 1507 1506 1504 1502 1499 1495 1491 1487 1481 1476 1469 1462 1456 1449 1442 1436 1429 1423 1416 1410 1403 1397 1390 1383 1376 1370 1364 1358 1353 1350 1347 1346 1346
1516 1516 1518 1520 1519 1508 1505 1505 1505 1505 1504 1504 1502 1500 1498 1495 1491 1487 1482 1477 1471 1465 1458 1452 1445 1438 1431 1425 1419 1412 1405 1398 1392 1385 1378 1371 1365 1359 1354 1349 1346 1343 1342 1342
1509 1509 1512 1512 1506 1503 1503 1502 1502 1502 1502 1501 1499 1497 1494 1491 1488 1484 1479 1473 1467 1460 1454 1448 1441 1434 1427 1421 1414 1408 1401 1395 1388 1381 1375 1368 1362 1356 1351 1347 1344 1341 1340 1340
1503 1506 1508 1507 1502 1501 1499 1499 1499 1499 1499 1498 1496 1494 1491 1488 1484 1480 1474 1469 1463 1457 1450 1444 1437 1430 1423 1417 1410 1404 1398 1392 1385 1379 1372 1366 1360 1355 1350 1346 1343 1340 1339 1339
1498 1499 1502 1502 1494 1495 1494 1494 1495 1496 1495 1494 1492 1490 1488 1484 1480 1476 1470 1465 1459 1453 1447 1440 1434 1427 1420 1413 1407 1401 1395 1389 1383 1377 1371 1365 1360 1355 1351 1347 1343 1340 1338 1338